Date,TemperatureHighF,TemperatureAvgF,TemperatureLowF,DewpointHighF,DewpointAvgF,DewpointLowF,HumidityHigh,HumidityAvg,HumidityLow,PressureMaxIn,PressureMinIn,WindSpeedMaxMPH,WindSpeedAvgMPH,GustSpeedMaxMPH,PrecipitationSumIn
2012-7-15,79.2,70.9,67.9,73.8,68.0,66.1,95,91,79,29.96,29.87,13,4,17,0.64
2012-7-16,91.0,78.4,67.4,72.8,68.5,63.4,96,75,41,29.99,29.88,14,4,18,0.00
2012-7-17,88.6,78.9,72.8,73.2,71.2,68.7,94,79,54,29.97,29.86,13,4,14,0.00
2012-7-18,88.5,79.0,73.3,73.2,71.3,66.1,95,79,51,30.01,29.92,11,4,15,0.00
2012-7-19,93.3,81.3,72.1,72.8,70.0,65.2,94,72,41,30.10,29.98,13,4,15,0.00
2012-7-20,96.2,84.0,73.4,71.1,68.2,62.0,90,63,34,30.07,29.92,12,5,17,0.00
2012-7-21,100.1,85.8,75.4,70.9,66.7,60.1,82,57,29,29.99,29.85,16,5,18,0.00
2012-7-22,94.8,83.4,74.0,73.0,68.3,62.8,87,63,37,30.01,29.88,16,5,17,0.00
2012-7-23,92.2,81.8,74.3,72.4,69.1,64.2,88,67,42,30.06,29.96,16,6,19,0.00
2012-7-24,92.9,82.1,73.5,72.5,69.6,64.6,93,69,41,30.05,29.89,15,5,20,0.00
2012-7-25,92.8,82.9,73.8,72.3,70.1,66.0,89,67,43,29.95,29.80,18,8,21,0.00
2012-7-26,93.1,82.1,73.4,72.0,69.9,66.8,88,69,44,29.92,29.79,20,8,22,0.00
2012-7-27,94.8,82.7,73.9,74.1,70.1,63.8,90,68,37,30.00,29.90,13,5,16,0.00
2012-7-28,97.5,89.7,77.3,71.4,64.9,56.5,82,46,27,30.10,29.97,11,3,14,0.00
2012-7-29,82.7,77.7,73.3,69.7,67.0,64.5,85,71,55,30.03,30.00,10,4,0,0.00
2012-8-19,88.6,83.2,74.7,70.7,68.8,67.8,81,63,54,29.92,29.85,9,2,14,0.01
2012-8-20,95.6,81.6,70.3,69.3,64.5,58.7,90,61,32,29.96,29.83,12,3,17,0.00
2012-8-21,91.5,78.2,70.0,68.7,61.9,56.8,82,59,38,29.99,29.89,13,3,16,0.00
2012-8-22,90.6,76.9,68.4,69.3,64.7,61.5,86,68,40,30.06,29.93,9,1,13,0.00
2012-8-23,93.8,81.1,70.3,70.2,65.8,59.1,93,63,38,30.00,29.87,12,2,12,0.00
2012-8-24,94.7,82.1,71.2,72.1,67.7,61.7,95,66,37,29.91,29.75,14,5,20,0.00
2012-8-25,95.0,82.1,73.3,71.1,68.1,63.1,89,65,36,29.87,29.77,19,8,22,0.00
2012-8-26,94.5,82.5,74.9,71.9,69.8,65.9,88,68,40,29.99,29.86,18,6,22,0.00
2012-8-27,96.8,83.1,72.3,71.5,66.7,58.6,91,62,31,30.03,29.88,15,3,16,0.00
2012-8-28,96.0,83.2,72.6,70.3,67.4,63.4,87,61,36,29.93,29.78,13,2,17,0.00
2012-8-29,93.8,84.5,75.9,69.2,64.2,54.1,77,53,30,29.84,29.69,15,3,20,0.00
2012-8-30,99.3,86.1,75.1,65.2,58.8,52.5,53,41,27,29.78,29.66,14,2,16,0.00
2012-8-31,99.3,87.6,78.8,70.0,63.1,57.6,70,46,27,29.92,29.75,19,4,21,0.00
2012-9-1,96.5,83.1,75.9,73.0,70.1,63.8,89,68,36,30.03,29.92,18,6,22,0.00
2012-9-2,96.7,83.5,73.0,71.8,67.6,58.8,92,64,31,30.02,29.88,18,6,19,0.00
2012-9-3,98.4,84.5,72.7,70.6,65.8,56.8,88,58,27,29.98,29.82,16,7,21,0.00
2012-9-4,99.6,85.4,73.5,71.4,66.8,55.6,89,59,25,29.93,29.78,18,6,18,0.00
2012-9-5,100.2,85.2,72.9,70.5,64.5,54.1,90,55,23,29.87,29.75,18,5,18,0.00
2012-9-6,100.0,85.7,71.5,70.8,65.0,58.8,89,54,29,29.92,29.80,12,4,15,0.00
2012-9-7,101.5,87.0,73.6,70.8,63.3,55.5,84,50,25,29.88,29.74,13,4,13,0.00
2012-9-8,86.4,79.0,70.7,66.0,56.0,41.6,69,47,28,30.04,29.77,20,5,21,0.00
2012-9-9,89.3,76.3,63.1,47.6,41.7,33.7,51,31,16,30.14,30.00,13,2,14,0.00
2012-9-10,92.0,78.6,63.4,51.1,42.1,36.6,44,29,17,30.10,29.96,10,1,0,0.00
2012-9-11,91.1,77.5,64.0,63.4,56.2,47.5,85,52,23,30.06,29.93,16,4,16,0.00
2012-9-12,94.4,80.4,71.1,70.0,67.7,61.6,91,68,38,30.02,29.88,13,4,17,0.00
2012-9-13,86.0,74.7,68.1,73.2,70.1,66.7,96,86,60,30.11,29.96,15,4,16,1.47
2012-9-14,68.6,65.8,63.8,67.7,63.9,62.0,97,94,87,30.22,30.11,8,2,0,0.55
2012-9-15,78.2,68.6,62.3,65.0,62.1,59.6,92,81,61,30.21,30.07,7,1,0,0.00
2012-9-16,70.2,65.7,63.1,65.3,62.3,60.6,96,89,81,30.10,30.05,6,1,0,0.72
2012-9-17,82.7,76.7,69.6,64.8,62.8,60.3,80,63,53,29.87,29.79,6,1,0,0.00
2012-9-18,82.4,72.5,63.9,67.4,63.2,59.5,94,74,48,30.06,29.87,10,2,13,0.00
2012-9-19,87.5,73.5,62.7,63.4,57.1,51.6,81,59,32,30.13,30.01,7,1,0,0.00
2012-9-20,88.3,75.2,66.2,66.7,61.1,54.7,96,65,34,30.07,29.94,15,5,20,0.00
2012-9-21,90.3,76.9,66.0,59.8,54.6,42.0,70,49,22,30.00,29.90,14,4,0,0.00
2012-9-22,90.6,76.8,65.1,61.4,58.2,52.8,82,55,32,30.07,29.96,10,3,0,0.00
2012-9-23,91.3,79.2,68.8,66.3,61.3,55.1,83,57,31,30.15,30.06,10,3,0,0.00
2012-9-24,89.3,77.6,68.8,69.4,65.1,59.7,95,68,39,30.12,29.96,16,5,19,0.00
2012-9-25,88.8,78.5,71.6,69.0,65.4,59.5,88,67,39,30.01,29.87,23,8,26,0.00
2012-9-26,88.3,77.9,69.7,70.3,65.3,58.0,93,68,38,30.00,29.90,18,6,20,0.00
2012-9-27,88.3,76.0,66.7,71.3,66.6,64.4,96,75,47,30.05,29.93,14,4,15,0.00
2012-9-28,82.7,74.9,69.4,71.6,69.1,66.3,95,83,66,30.02,29.89,11,2,19,0.08
2012-9-29,80.8,71.0,65.5,73.0,68.8,64.0,97,93,75,29.94,29.67,16,4,18,1.05
2012-9-30,73.7,66.4,63.3,66.3,63.0,60.5,97,89,72,29.89,29.76,16,4,21,0.05
2012-10-1,80.3,68.3,58.9,64.6,57.9,51.1,95,73,41,29.90,29.81,13,2,14,0.00
2012-10-2,78.3,68.7,60.0,56.0,53.4,51.1,78,59,41,29.99,29.88,12,3,14,0.00
2012-10-3,81.8,70.5,61.0,60.1,54.4,51.3,72,58,40,30.01,29.92,14,5,19,0.00
2012-10-4,88.0,76.0,67.9,70.5,67.2,60.0,93,76,51,30.07,29.98,19,8,22,0.00
2012-10-5,86.7,76.4,68.2,69.4,66.2,62.3,94,73,47,30.07,29.92,22,6,25,0.00
2012-10-6,73.1,62.6,53.1,66.3,57.4,48.5,94,83,73,30.12,29.95,11,3,15,0.00
2012-10-7,54.6,50.5,46.5,48.6,43.3,39.6,87,77,66,30.25,30.12,13,5,15,0.00
2012-10-8,69.4,54.9,46.9,51.2,44.1,37.3,78,68,51,30.27,30.09,10,2,0,0.00
2012-10-9,79.4,66.0,55.6,65.1,58.3,50.3,84,77,61,30.10,29.91,21,6,24,0.00
2012-10-10,86.0,74.9,68.1,71.0,68.2,63.1,96,81,55,30.11,29.97,14,3,20,0.00
2012-10-11,82.3,73.9,69.9,73.2,70.3,67.8,96,89,71,30.10,30.02,15,5,19,0.05
2012-10-12,84.8,75.4,69.4,70.4,68.1,65.7,96,79,57,30.14,30.03,15,5,20,0.00
2012-10-13,82.0,74.9,71.7,74.0,70.6,68.2,92,87,75,30.07,29.84,22,7,23,0.02
2012-10-14,83.7,74.5,65.2,70.8,62.6,49.0,95,70,32,30.06,29.89,21,4,26,0.25
2012-10-15,77.5,69.0,61.0,56.1,52.4,48.9,73,56,37,30.11,29.97,7,1,0,0.00
2012-10-16,69.7,65.9,63.7,65.3,57.7,49.8,97,76,53,30.00,29.76,21,5,21,0.15
2012-10-17,90.6,73.3,62.0,69.6,63.1,53.9,97,75,40,29.78,29.60,21,6,22,0.00
2012-10-18,75.5,68.5,60.4,54.3,42.7,30.8,61,41,22,29.98,29.74,19,4,20,0.00
2012-10-19,82.5,67.5,48.3,43.8,37.1,29.3,70,35,17,30.05,29.91,11,2,0,0.00
2012-10-20,84.0,71.3,61.2,70.1,58.8,36.4,86,66,34,29.92,29.76,21,8,24,0.00
2012-10-21,87.8,77.8,71.5,70.0,67.8,63.1,88,73,45,29.90,29.80,22,9,28,0.00
2012-10-22,87.7,76.1,71.1,71.4,68.6,64.1,93,79,48,29.95,29.86,21,7,24,0.00
2012-10-23,82.0,73.8,70.3,69.7,67.7,65.9,92,82,62,29.95,29.87,17,5,21,0.00
2012-10-24,83.8,73.4,66.3,67.2,64.5,61.6,95,76,51,29.97,29.83,19,6,20,0.00
2012-10-25,85.5,74.0,62.7,67.8,64.5,51.6,92,74,50,29.98,29.78,18,6,22,0.00
2012-10-26,62.7,53.8,49.5,51.6,42.5,35.8,73,65,59,30.28,29.97,16,5,19,0.00
2012-10-27,60.2,50.3,42.1,35.7,32.7,29.9,66,52,34,30.34,30.16,12,3,16,0.00
2012-10-28,63.4,52.6,41.7,33.5,30.4,27.8,62,44,26,30.31,30.18,10,2,12,0.00
2012-10-29,69.8,56.1,43.4,36.0,32.7,29.1,62,42,26,30.31,30.13,8,2,0,0.00
2012-10-30,75.8,61.6,48.6,53.0,44.4,34.5,68,54,43,30.15,29.97,15,5,19,0.00
2012-10-31,85.5,69.6,60.0,63.1,55.6,49.1,94,65,31,30.06,29.96,13,4,16,0.00
2012-11-1,85.6,71.9,59.3,64.4,56.2,45.7,94,61,27,30.06,29.94,12,4,15,0.00
2012-11-2,82.9,71.1,63.0,63.8,59.2,55.3,93,69,41,30.02,29.90,16,6,18,0.00
2012-11-3,85.0,70.5,64.1,66.6,61.1,53.3,95,75,36,30.07,29.95,14,5,17,0.00
2012-11-4,79.5,67.5,59.3,59.8,57.7,55.8,93,73,45,30.11,30.02,10,2,13,0.00
2012-11-5,83.3,70.3,59.9,63.9,57.4,43.0,88,66,44,30.08,29.94,10,2,0,0.00
2012-11-6,81.1,64.9,52.7,44.8,41.0,37.0,58,43,25,30.18,30.06,7,2,0,0.00
2012-11-7,80.5,68.0,55.9,47.3,45.0,42.4,63,45,29,30.19,30.04,12,3,16,0.00
2012-11-8,80.4,69.1,60.2,60.4,54.7,47.5,89,63,34,30.10,29.97,20,8,30,0.00
2012-11-9,80.7,70.0,63.1,62.9,59.7,54.1,92,72,45,30.05,29.92,28,10,32,0.00
2012-11-10,78.7,69.5,61.6,63.0,60.8,57.9,94,76,51,30.00,29.84,27,10,39,0.00
2012-11-11,79.9,70.0,60.8,64.0,55.9,32.8,85,64,33,30.16,29.80,25,8,28,0.00
2012-11-12,60.5,50.2,39.7,41.4,29.1,22.5,75,46,25,30.50,30.16,13,4,16,0.00
2012-11-13,53.1,46.6,38.8,32.0,26.9,22.9,61,47,35,30.52,30.34,9,1,13,0.00
2012-11-14,65.4,53.0,43.9,36.3,32.5,27.7,68,47,32,30.44,30.28,6,1,0,0.00
2012-11-15,62.2,54.1,45.4,40.0,36.0,27.7,73,51,37,30.32,30.22,6,1,0,0.00
2012-11-16,65.2,55.7,47.0,38.7,34.7,28.3,69,46,30,30.39,30.28,12,2,13,0.00
2012-11-17,67.3,54.8,44.1,37.1,31.3,26.6,55,41,25,30.40,30.28,6,1,0,0.00
2012-11-18,71.3,59.0,48.0,51.9,45.0,33.4,88,61,40,30.30,30.17,15,5,17,0.00
2012-11-19,70.5,61.1,53.6,56.7,53.3,49.5,87,76,60,30.26,30.13,17,5,18,0.00
2012-11-20,81.3,67.2,58.6,59.9,55.7,53.6,85,69,40,30.21,30.10,12,4,0,0.00
2012-11-21,78.4,67.4,60.9,60.0,54.3,42.9,83,65,30,30.24,30.13,11,4,12,0.00
2012-11-22,76.0,64.6,56.3,58.0,54.7,48.2,94,72,48,30.15,30.03,19,7,21,0.00
2012-11-23,64.5,60.9,56.4,57.8,49.0,26.2,94,68,29,30.37,30.11,14,5,16,0.00
2012-12-4,61.8,58.4,55.5,48.1,45.6,42.3,64,62,60,30.23,30.20,4,1,0,0.01
2012-12-5,71.5,57.0,46.0,46.2,37.6,29.3,71,49,30,30.27,30.06,8,2,0,0.00
2012-12-6,73.0,60.5,50.9,53.7,50.6,44.5,94,72,47,30.06,29.82,15,6,17,0.00
2012-12-7,74.5,63.8,56.3,61.7,58.5,51.6,96,83,62,29.89,29.78,15,5,16,0.00
2012-12-8,76.5,68.4,62.1,65.3,62.2,58.3,94,82,61,29.89,29.77,14,5,16,0.00
2012-12-9,76.5,67.7,52.1,65.9,60.8,43.4,90,79,61,29.94,29.75,18,6,19,0.00
2012-12-10,52.1,42.1,34.9,43.7,22.2,14.2,73,46,30,30.16,29.92,16,4,22,0.00
2012-12-11,51.5,39.6,29.9,23.6,19.3,16.4,68,46,27,30.25,30.12,9,1,0,0.00
2012-12-12,60.2,46.7,35.7,25.2,20.1,14.1,44,35,24,30.35,30.22,10,3,0,0.00
2012-12-13,64.1,51.5,39.6,47.0,35.6,22.9,75,55,41,30.31,30.17,13,6,18,0.00
2012-12-14,67.4,59.6,52.2,63.4,53.4,38.2,92,80,50,30.19,29.85,18,7,23,0.00
2012-12-15,70.4,65.1,60.9,64.2,50.4,38.1,91,62,34,29.97,29.85,18,2,22,0.01
2012-12-16,70.7,61.9,56.1,58.2,45.6,36.0,94,57,36,29.88,29.75,13,3,19,0.05
2012-12-17,71.0,59.2,51.6,37.7,31.1,24.3,53,36,18,29.97,29.85,16,5,20,0.00
2012-12-18,80.7,66.3,55.7,56.9,37.5,26.7,83,37,19,29.91,29.77,18,6,22,0.00
2012-12-19,79.0,70.0,61.6,65.9,62.3,40.2,93,78,37,29.82,29.60,24,10,33,0.00
2012-12-20,69.8,48.2,38.1,40.2,13.2,2.1,47,26,13,30.48,29.83,24,6,36,0.00
2012-12-21,61.4,46.6,33.8,15.1,9.7,3.1,32,23,13,30.54,30.37,10,3,13,0.00
2012-12-22,65.2,51.9,42.2,49.4,31.4,11.3,65,47,27,30.38,30.12,22,7,28,0.00
2012-12-26,40.4,34.9,29.4,21.1,20.2,19.2,68,55,43,30.19,30.17,3,0,0,0.00
2012-12-27,44.0,35.9,25.8,40.9,30.2,19.5,95,80,66,30.17,29.89,8,2,0,0.01
2012-12-28,54.7,44.0,33.4,45.4,37.9,27.4,97,81,52,30.25,29.83,16,3,21,0.01
2012-12-29,50.4,39.2,31.0,27.6,22.0,19.8,79,52,32,30.50,30.23,7,2,0,0.00
2012-12-30,47.0,40.2,33.5,39.9,25.9,21.0,78,57,43,30.49,30.22,9,3,16,0.00
2012-12-31,58.1,50.5,44.4,57.3,49.3,40.2,97,96,79,30.23,29.95,18,2,20,0.14
2013-1-1,55.4,46.8,38.0,54.6,44.5,34.2,97,92,82,30.26,29.97,12,3,17,0.07